Location: Peterborough
(44.3091°N, 78.3197°W)
Time: 05:41:55
(UTC-04:00)

A-11 Canister half - Pass Details

Date: 26 March 2023
Orbit: 1513 x 1686 km, 47.2° (Epoch: 04 June)

Event Time Altitude Azimuth Distance (km) Brightness Sun altitude
Rises 20:32:49 0° 199° (SSW) 4,752 11.6 -11.4°
Reaches altitude 10° 20:36:19 10° 189° (S) 3,797 11.0 -12.0°
Maximum altitude 20:44:24 31° 132° (SE) 2,569 9.7 -13.4°
Enters shadow 20:52:19 11° 76° (ENE) 3,820 10.6 -14.7°
